GFSWCAN_prec_cthk_243.txt.gz
RH
52 62 66 67 70 76 82 90 94 98 98 96 97 98 98 97 97 99 98 88 78 66 53 63 92 94 87 94 90 71 81 90 89 91 88 81 71 59 63 57 59 63 72 77 77 79 64 55 53 54 49 53 56 63
54 61 64 64 66 74 83 94 98 98 98 98 98 98 98 95 95 98 99 95 94 89 72 77 85 96 93 87 83 79 70 88 78 76 79 75 74 71 61 65 63 66 58 67 66 67 63 66 65 63 64 69 72 70
53 60 63 61 59 68 79 89 96 97 97 98 98 99 98 98 98 98 97 98 97 86 87 94 96 92 93 90 83 80 78 76 75 70 81 80 78 74 73 68 69 68 63 69 68 67 70 71 73 73 78 78 79 79
52 63 62 60 57 66 75 86 93 96 98 98 98 98 98 98 98 98 97 92 88 92 96 94 86 98 89 85 83 74 73 84 78 82 89 87 82 80 81 76 77 77 76 76 77 80 79 79 81 84 85 86 86 85
55 62 61 60 58 61 78 96 98 98 97 98 98 97 97 94 97 97 95 87 80 94 95 90 85 91 91 86 83 85 87 82 85 95 96 95 91 90 85 83 83 83 81 84 82 81 86 91 88 86 87 86 86 89
53 62 59 61 53 63 87 96 98 98 98 98 98 95 71 75 98 98 99 93 94 99 97 88 97 98 99 92 88 87 87 89 93 97 98 93 88 90 93 90 82 88 88 87 92 93 91 91 88 85 84 80 79 80
50 55 57 57 55 62 78 88 97 98 98 98 98 92 77 88 98 94 82 72 90 99 97 97 95 95 98 95 90 93 97 98 97 98 99 97 98 97 93 88 83 91 89 87 88 90 89 85 81 77 75 69 69 69
56 51 52 53 56 61 67 78 90 97 98 98 98 98 86 85 89 95 81 76 91 95 93 97 90 98 98 96 94 85 94 98 98 98 98 97 96 97 96 90 88 88 84 86 83 80 79 78 75 73 68 66 68 67
59 57 53 50 53 58 62 67 76 86 95 97 98 98 98 97 98 98 98 98 98 99 98 98 95 97 96 91 93 98 98 98 98 97 96 94 96 97 89 82 86 85 81 79 77 73 70 66 65 65 64 62 59 57
59 60 59 56 53 52 55 59 64 67 76 91 95 97 98 96 94 92 96 95 97 99 98 97 98 97 95 97 96 96 95 98 97 98 97 92 94 83 78 70 70 75 73 69 64 65 63 60 56 54 51 48 47 48
60 61 63 61 57 53 52 53 55 57 63 73 85 94 93 93 92 92 92 91 94 93 92 94 95 94 91 90 91 88 93 90 91 91 89 88 84 75 69 65 63 60 61 60 58 52 50 51 52 50 48 46 45 43
62 62 63 64 62 61 61 59 58 54 59 63 73 75 76 77 79 86 95 94 88 88 87 89 90 90 91 87 88 84 83 84 85 79 83 81 70 67 62 64 66 66 66 61 55 52 50 47 43 40 38 38 39 41
64 65 62 63 64 63 64 67 61 58 54 51 51 59 69 74 79 82 90 94 96 96 96 97 96 89 85 78 84 83 79 80 75 80 81 73 74 73 71 70 70 63 54 46 44 43 39 37 36 36 38 42 44 45
68 68 64 64 62 63 62 64 62 59 54 54 54 62 65 71 82 86 85 85 87 84 87 91 93 91 89 86 84 79 87 87 89 85 72 68 70 66 66 65 59 53 44 40 39 37 36 37 39 43 47 50 50 51
66 69 66 65 63 60 61 60 57 53 52 54 62 76 80 77 74 72 67 71 73 75 73 74 77 76 79 77 76 76 78 77 72 65 59 55 58 59 60 57 52 45 40 38 38 39 40 44 48 47 47 47 44 42
63 65 70 65 60 59 59 58 55 52 53 58 64 68 71 76 76 72 70 68 67 65 64 63 68 70 71 68 65 64 62 61 54 50 46 47 50 53 54 54 47 42 42 43 44 46 47 48 49 48 46 42 40 36
59 64 65 67 63 58 55 56 55 54 56 58 63 51 47 53 68 72 77 74 71 69 73 71 68 69 70 67 63 58 54 46 43 47 49 52 55 56 57 52 48 47 46 49 50 49 51 52 50 46 41 39 36 38
59 59 60 60 60 59 54 51 54 55 57 61 62 59 53 48 48 53 60 71 73 75 71 73 70 67 68 62 62 55 56 55 55 54 55 57 59 58 54 52 51 51 53 53 53 48 47 48 43 40 38 41 46 46
41 61 58 57 57 58 56 50 49 54 56 60 60 57 52 52 53 53 55 55 55 58 59 60 61 65 65 63 58 57 60 57 56 58 60 61 61 61 58 57 57 59 59 58 49 47 50 50 47 46 48 51 47 48
31 48 54 58 56 56 56 56 52 51 51 52 55 57 56 55 52 51 52 57 56 56 59 59 58 56 57 60 61 58 60 58 56 57 61 65 67 65 62 61 61 60 57 49 48 50 51 49 50 53 52 50 51 51
29 34 42 49 56 59 57 57 56 53 53 55 59 61 61 59 57 54 53 53 57 55 57 54 57 59 61 60 61 61 58 53 54 55 64 71 73 74 68 60 55 46 43 44 48 49 47 51 55 53 52 52 50 41
35 30 30 36 43 47 51 54 57 58 58 54 54 53 57 57 58 59 60 63 64 58 55 50 45 45 51 52 51 49 50 54 60 67 67 62 64 65 53 48 39 37 42 44 45 47 52 53 53 53 54 53 45 36
38 36 34 34 38 38 40 41 48 51 58 63 57 49 46 45 45 48 52 48 46 50 54 55 54 50 50 51 50 51 55 58 62 65 63 62 61 56 52 43 36 39 41 43 49 53 51 53 56 58 58 51 41 36
45 46 42 40 37 41 38 43 45 49 53 57 61 64 54 45 45 49 46 40 36 37 37 39 45 51 52 55 55 55 60 63 66 64 60 56 49 43 43 38 39 40 41 47 52 53 55 58 61 62 57 48 40 34
51 49 50 51 48 47 44 44 46 45 44 50 53 58 66 61 53 50 44 38 38 37 38 39 38 39 41 44 51 53 61 66 66 62 49 42 44 45 42 41 41 43 46 52 54 56 60 63 63 60 54 43 34 31
52 50 50 51 55 53 48 45 44 45 46 47 48 52 62 76 69 50 43 41 44 43 48 48 47 48 49 47 50 53 64 64 63 62 55 51 50 46 44 42 43 48 52 55 56 60 63 64 61 57 47 38 31 28
55 52 50 48 54 55 53 48 42 44 47 46 49 51 52 62 74 68 57 45 45 42 41 54 55 58 61 55 57 69 69 67 69 64 60 60 58 53 48 46 51 55 57 59 61 62 62 61 57 48 39 33 29 26
54 55 54 49 51 51 53 53 50 48 46 47 51 50 45 44 53 72 68 55 46 31 29 38 57 61 58 58 59 64 67 68 68 67 64 62 62 56 51 54 58 61 61 62 65 64 59 53 47 40 34 29 27 25
58 55 55 55 54 54 52 48 51 50 51 51 55 55 55 53 59 62 73 62 38 32 30 27 33 58 65 65 72 70 63 59 58 58 58 58 57 56 57 58 61 64 63 65 64 61 52 44 40 36 31 26 24 24
54 56 60 59 59 53 47 47 47 51 54 56 56 59 60 60 61 61 64 77 65 42 35 33 35 41 52 59 58 56 54 53 52 52 54 56 58 61 61 63 66 68 70 69 63 54 46 40 38 34 28 23 21 22
53 54 60 63 60 52 51 52 53 52 52 53 54 55 56 59 60 62 62 69 77 67 51 41 36 39 38 43 48 50 50 51 52 56 59 63 62 65 65 68 72 74 76 70 61 48 41 40 36 31 25 22 21 22
47 52 56 58 57 54 57 60 57 54 52 52 53 55 55 58 61 59 57 56 61 72 71 61 52 47 43 43 46 48 52 57 61 67 73 70 68 69 71 74 76 79 76 70 57 45 42 38 34 28 24 21 21 23
46 47 55 62 59 56 58 58 58 59 58 54 49 48 49 49 52 52 52 49 51 55 64 77 76 69 58 50 51 56 60 64 69 73 75 73 73 76 77 79 81 80 75 64 49 42 41 38 32 27 23 21 22 25

GFSWCAN_prec_cthk_246.txt.gz
RH
51 51 57 59 64 66 70 74 78 85 91 95 97 98 99 96 96 98 94 97 98 81 73 68 64 65 67 71 69 59 95 98 99 99 99 96 82 67 64 53 61 66 71 71 74 77 63 53 53 52 52 57 56 58
51 55 59 63 63 60 66 69 74 89 97 99 98 98 98 98 97 98 98 98 96 99 77 78 71 64 59 70 72 81 96 93 86 98 88 86 80 75 60 62 56 62 57 63 63 61 57 62 59 56 55 56 59 61
56 54 59 61 61 59 64 68 79 93 96 97 98 98 98 98 98 98 98 97 99 98 97 95 82 58 59 62 91 99 96 98 93 83 90 84 79 72 65 63 66 66 62 64 61 59 63 64 63 63 63 64 64 67
52 53 60 63 61 58 58 71 91 94 97 97 98 98 98 98 98 99 98 95 98 99 97 79 80 70 63 79 89 89 91 98 98 90 91 86 82 72 70 72 71 70 71 69 73 73 71 75 76 75 71 72 75 79
52 53 60 60 60 57 73 93 97 98 98 98 98 98 98 98 98 99 99 97 94 96 94 82 76 71 66 73 89 93 95 99 97 97 87 83 79 73 76 77 75 76 74 75 71 73 73 76 77 80 79 83 87 88
54 52 56 58 59 64 78 90 97 98 98 99 98 97 96 98 99 99 98 97 98 99 97 85 77 83 86 90 95 92 92 92 98 93 91 84 74 84 86 81 79 80 79 78 82 80 80 86 87 87 85 85 85 87
54 52 53 54 60 66 74 82 98 97 98 96 92 87 81 84 98 90 85 77 89 96 93 97 98 95 93 94 96 98 97 96 91 92 92 87 90 90 87 80 83 83 82 85 84 85 91 93 91 87 85 81 79 76
55 54 52 50 55 62 70 77 94 97 97 94 88 94 98 98 99 98 95 81 85 91 98 97 98 99 96 95 94 97 99 96 95 85 88 91 94 93 94 92 87 86 89 92 89 86 88 88 83 81 79 78 75 72
56 56 55 52 51 54 61 68 87 97 96 95 89 85 90 97 98 99 96 88 88 91 96 98 97 98 96 98 97 93 89 97 96 92 92 98 96 95 88 85 86 88 92 94 90 87 81 78 80 79 77 76 72 69
56 58 58 56 53 51 52 59 69 90 96 96 97 87 96 98 91 90 97 97 98 97 97 94 92 97 97 98 97 98 97 98 96 92 92 98 96 97 90 89 93 91 88 88 88 86 81 80 75 74 68 64 60 57
60 58 58 58 56 55 56 56 59 76 95 95 95 97 97 91 93 93 95 97 96 95 94 97 98 96 98 98 97 98 98 96 91 86 88 90 89 89 88 88 90 86 87 84 78 73 67 62 58 55 54 53 53 53
58 56 57 58 59 59 58 58 57 59 77 88 92 95 95 96 94 96 97 96 95 91 90 94 97 98 97 97 97 97 97 97 97 94 96 93 90 92 87 85 81 73 72 69 65 61 55 54 54 53 52 49 46 47
59 58 56 56 57 58 58 57 54 51 51 67 78 83 86 90 95 96 96 96 96 94 93 95 97 97 93 87 87 82 84 88 87 92 89 81 81 80 77 76 76 73 68 63 61 59 57 55 52 46 43 45 46 46
60 59 56 54 54 55 56 54 50 47 45 49 60 80 88 94 95 97 98 98 97 99 98 97 94 93 89 86 84 87 91 83 83 79 68 70 73 74 73 72 71 68 66 62 60 55 49 46 46 46 47 46 45 45
58 58 57 53 51 51 51 48 44 43 47 52 57 70 77 83 87 92 94 95 98 96 92 91 88 82 83 86 86 85 87 85 78 69 65 74 79 78 79 79 71 66 60 54 50 48 47 47 46 45 45 42 39 38
58 56 57 56 53 49 47 45 42 42 45 55 62 67 67 66 66 69 74 79 82 82 80 78 81 81 82 78 73 74 72 73 71 70 71 79 77 77 73 68 61 54 52 50 47 45 43 43 43 40 40 40 38 36
55 59 57 56 54 51 47 43 42 42 44 46 54 58 64 66 65 65 67 64 62 63 69 70 74 81 77 75 71 68 69 63 62 61 64 67 66 66 64 60 56 52 49 46 45 45 44 43 44 45 42 38 36 37
50 56 57 56 54 52 49 44 43 43 49 51 51 46 45 51 56 61 66 63 61 63 65 67 65 64 68 64 69 63 62 59 58 59 60 62 64 64 63 59 53 52 48 48 48 47 46 48 44 44 39 35 38 39
34 51 55 54 53 51 48 46 48 49 51 50 49 47 45 50 54 52 50 52 55 56 58 61 61 64 62 61 58 58 57 57 56 57 59 62 63 60 55 52 51 50 50 51 51 52 51 45 45 44 42 43 47 46
27 41 53 54 54 53 50 49 47 48 50 50 50 49 48 47 48 53 52 48 48 48 51 53 54 53 55 56 57 61 59 55 52 53 55 57 57 55 55 53 53 53 57 60 57 53 46 47 47 45 49 52 49 51
28 35 45 52 55 54 53 53 51 52 54 54 55 54 51 48 47 45 47 44 45 51 53 51 53 54 55 54 55 56 58 57 52 49 53 59 64 66 64 62 60 58 58 58 54 48 49 49 47 53 54 50 52 54
32 30 38 42 50 54 54 54 54 55 56 58 59 55 53 53 52 52 52 51 50 48 46 43 43 51 56 55 54 55 56 55 54 53 55 61 66 68 76 69 58 52 47 43 43 45 47 47 53 53 51 53 53 44
36 34 33 37 43 44 44 47 51 51 55 62 61 59 55 47 42 42 46 45 47 48 48 49 51 48 44 48 49 49 50 50 54 57 65 69 66 66 66 54 49 42 38 42 46 46 48 51 51 53 56 56 49 40
46 44 39 39 38 42 39 42 47 49 52 54 57 57 57 57 49 45 42 36 33 35 36 37 44 52 56 55 53 51 51 53 58 65 66 66 66 65 60 53 48 39 40 43 44 49 52 52 55 58 60 55 46 38
54 50 51 51 47 47 44 46 47 48 49 54 52 52 53 59 65 61 49 39 37 36 36 35 35 35 39 49 57 57 56 57 58 61 59 61 61 59 47 43 42 38 40 41 47 52 53 56 60 62 59 54 42 34
56 54 54 55 58 54 49 47 48 47 46 48 49 51 52 57 63 64 53 45 47 44 42 41 36 37 37 38 41 45 52 59 63 62 59 58 49 42 41 41 38 40 41 44 49 52 56 60 62 61 57 50 38 31
56 57 54 53 58 57 56 51 48 49 47 45 47 50 52 54 57 60 66 62 55 44 35 38 45 45 47 51 48 47 52 58 60 60 58 54 49 46 46 43 40 41 45 50 54 56 59 61 59 56 52 41 34 30
55 58 58 54 58 58 58 57 54 51 48 44 48 49 45 44 46 54 59 69 62 36 29 29 49 57 54 55 53 56 57 61 69 66 63 60 57 55 54 49 47 50 53 58 60 61 61 59 54 50 43 36 32 29
59 58 59 58 59 60 59 56 55 53 53 52 52 52 52 49 56 58 57 60 63 43 31 28 33 57 58 55 58 66 72 70 66 64 60 56 56 57 58 54 52 54 58 61 63 66 64 57 49 41 38 34 29 26
57 61 64 65 60 55 53 52 55 57 59 58 57 59 59 58 59 59 59 60 69 62 39 33 34 49 60 58 59 66 70 69 66 62 58 55 54 55 55 55 56 58 62 63 66 66 61 51 42 39 36 31 26 23
63 64 68 68 63 56 54 56 59 61 62 61 60 59 62 61 62 60 59 63 67 71 64 43 36 39 45 56 66 68 65 58 56 55 55 56 59 59 60 61 61 63 66 70 73 68 57 45 39 37 32 26 23 23
60 65 66 68 66 65 64 62 61 59 58 56 56 56 55 57 57 55 56 59 61 61 67 65 51 41 40 40 44 47 53 57 54 54 55 56 57 64 67 68 67 69 73 78 76 67 53 42 38 36 28 24 23 23
57 60 63 63 61 62 68 67 67 64 60 56 53 53 54 54 55 53 57 57 56 56 60 67 72 67 55 45 43 44 48 51 54 54 60 67 72 74 73 72 73 75 80 81 76 64 49 42 39 34 27 25 24 25

GFSWCAN_prec_cthk_252.txt.gz
RH
32 38 43 45 44 42 43 45 50 54 58 59 62 68 75 82 93 97 96 97 84 74 69 78 80 79 89 90 85 66 90 70 79 83 86 71 68 55 54 57 76 91 96 92 78 73 66 38 50 54 47 60 59 60
41 44 49 47 45 44 45 50 53 57 56 55 61 74 86 90 97 99 97 98 96 90 69 74 76 80 85 83 86 86 87 74 76 64 56 60 78 76 58 60 62 95 76 66 61 46 46 59 59 61 62 65 67 67
45 51 53 50 46 42 47 51 53 55 64 77 86 85 84 91 97 98 98 99 99 96 87 83 72 76 80 79 80 91 79 73 84 76 84 88 82 81 85 61 73 78 81 70 60 50 61 64 68 66 64 64 67 67
51 53 52 49 48 47 50 50 54 66 73 81 87 89 91 95 98 99 98 99 99 99 96 81 75 78 74 80 81 82 71 92 86 84 92 91 84 96 94 97 97 92 82 68 60 68 69 65 70 68 70 70 72 71
54 55 52 49 49 50 52 54 60 68 74 83 88 90 94 97 98 99 98 97 98 99 95 89 85 80 78 79 79 76 83 88 89 99 93 78 80 90 95 95 91 85 79 75 62 66 54 55 69 73 71 72 78 77
57 56 54 51 51 52 52 61 62 64 72 88 91 91 92 94 99 99 98 95 96 99 99 95 88 84 83 82 80 82 76 86 96 87 78 81 80 94 95 88 81 87 77 67 65 62 58 62 69 73 74 76 82 84
57 56 53 55 52 52 51 50 54 58 71 88 89 90 90 99 99 98 97 91 88 99 99 96 88 82 83 88 88 91 94 92 95 86 85 92 91 95 97 93 81 88 83 76 71 65 72 76 76 78 80 86 91 92
60 57 58 57 55 53 51 50 51 57 79 91 91 85 88 89 93 96 98 92 93 98 99 97 88 89 89 87 87 90 97 99 88 81 81 87 95 97 93 77 89 93 83 76 75 72 73 75 80 85 88 92 92 94
60 59 59 58 56 54 55 55 56 58 84 91 91 90 86 88 91 92 90 89 92 93 93 92 86 88 96 97 97 98 95 88 76 77 82 92 94 92 78 85 84 79 78 81 81 82 81 81 89 95 95 95 97 98
60 61 61 60 61 62 61 56 55 58 79 90 89 86 88 86 86 85 89 90 89 90 93 90 92 93 94 97 98 98 95 84 82 79 91 96 88 81 84 96 90 85 72 82 82 84 80 90 96 96 97 97 95 91
60 60 62 63 64 64 60 56 56 61 77 90 88 85 86 84 82 84 86 85 86 91 90 88 89 89 97 99 98 96 97 91 87 85 96 91 83 86 89 90 92 91 84 85 86 89 90 93 95 98 98 96 93 88
57 58 60 61 62 62 60 58 54 56 72 87 85 87 89 88 90 92 87 90 96 92 97 95 95 94 95 96 99 98 98 98 97 95 96 89 83 81 86 86 92 93 93 93 96 97 94 95 95 94 91 87 82 71
56 57 59 60 62 61 60 57 51 52 60 80 92 91 89 92 94 92 95 95 95 94 97 97 98 95 97 97 96 97 98 96 96 98 93 85 85 89 89 89 90 91 98 98 98 97 97 95 92 86 77 68 63 62
55 57 57 57 59 59 57 53 49 50 55 69 85 92 91 93 90 92 93 94 95 95 95 97 96 98 97 97 97 98 97 97 97 96 93 93 90 91 93 94 94 93 92 95 97 93 88 78 70 66 62 61 55 51
49 54 54 54 54 56 54 49 47 50 54 57 62 75 79 86 93 94 93 93 93 95 97 97 95 95 95 95 91 89 92 92 85 84 88 96 97 96 92 92 98 98 96 93 80 74 69 65 61 58 59 58 56 54
42 49 53 52 52 53 50 47 46 50 53 56 57 61 66 77 92 96 95 94 91 90 87 86 84 83 79 77 77 78 74 68 74 79 82 92 98 98 98 96 96 91 84 78 73 69 64 61 59 57 56 58 55 49
36 44 51 51 50 50 48 45 44 44 48 54 59 60 66 68 73 73 73 79 86 85 86 78 79 76 70 68 64 67 70 72 73 75 80 88 93 95 95 92 86 80 74 70 68 62 62 63 63 60 53 48 46 42
31 40 46 52 50 48 47 44 44 42 46 51 54 56 58 60 63 64 63 62 60 61 60 67 73 72 75 64 65 67 69 69 76 80 83 88 94 91 84 79 77 74 70 66 65 66 64 61 55 51 47 45 44 39
31 31 44 51 52 49 45 44 45 46 45 40 41 45 45 47 52 54 56 54 51 51 50 50 50 53 58 60 62 63 66 71 75 79 84 90 89 84 78 74 74 72 69 68 66 63 58 56 55 54 54 50 43 38
24 29 40 50 51 49 45 45 44 46 47 48 45 47 47 48 47 44 43 42 42 45 45 46 50 50 49 49 51 53 58 64 67 73 79 80 82 83 79 76 74 69 68 67 66 63 61 60 61 58 52 43 39 37
25 28 34 47 52 50 47 46 44 46 50 52 48 48 44 43 44 44 42 35 36 38 41 44 46 46 45 47 49 52 58 63 70 80 74 73 75 75 74 72 69 69 69 70 68 65 65 63 59 54 46 42 40 39
31 32 35 42 50 52 50 48 48 49 50 50 50 49 48 47 44 41 40 36 34 39 42 45 47 48 51 50 50 52 52 53 54 56 59 64 65 63 62 62 62 66 68 67 66 65 62 61 57 51 44 42 42 37
41 36 38 42 45 49 55 52 52 51 54 56 56 53 52 50 49 45 47 43 40 36 37 41 46 50 53 57 58 57 55 53 52 50 55 60 63 65 66 69 68 67 67 67 66 64 63 58 52 45 44 47 42 39
51 46 42 43 43 47 45 52 53 54 58 59 58 56 54 54 51 46 39 37 35 31 31 34 37 42 50 59 61 64 62 59 57 53 52 54 58 63 71 72 75 69 60 60 58 55 52 45 43 48 50 46 45 37
59 52 49 44 44 42 43 46 50 51 56 55 54 52 52 50 50 49 46 47 44 42 37 31 30 34 41 45 48 57 63 61 56 53 54 57 61 70 77 79 73 65 55 48 38 38 40 42 49 51 50 51 44 36
64 60 58 54 49 46 43 48 49 48 49 52 51 49 47 48 47 45 45 50 54 52 45 43 39 37 35 37 42 45 50 57 58 58 60 60 62 64 68 68 64 58 50 47 39 38 40 48 52 53 55 53 44 34
65 62 60 61 61 57 51 48 48 47 48 49 49 51 51 48 46 46 48 49 56 57 49 43 39 39 38 37 37 39 43 55 65 65 64 62 62 64 63 59 54 46 43 44 40 40 46 51 54 58 57 51 39 30
61 61 64 62 66 64 62 57 53 52 48 45 49 51 48 45 45 50 50 51 53 44 43 42 33 29 37 38 39 42 41 46 55 63 64 63 62 60 56 54 48 46 43 39 42 47 52 53 58 60 55 47 33 28
61 61 64 64 65 65 63 59 57 53 52 53 56 52 52 51 51 51 53 48 43 41 42 45 44 43 47 51 54 54 50 49 50 51 54 52 49 48 51 51 49 49 46 42 47 55 57 60 63 61 54 43 31 28
58 62 64 63 63 62 61 59 59 58 58 60 60 59 58 58 60 56 55 55 53 50 46 46 48 48 54 57 62 62 57 56 56 56 55 52 54 56 59 57 54 54 50 48 53 58 60 64 65 60 50 39 31 30
63 66 67 64 64 64 64 62 62 65 65 66 66 65 64 67 68 65 62 60 57 56 54 52 55 55 54 59 63 68 69 64 59 63 67 65 63 63 61 57 56 57 55 55 58 61 63 68 68 59 47 37 33 31
71 72 71 71 68 66 67 69 70 70 72 72 73 70 71 71 70 69 68 63 59 55 55 55 58 60 51 54 64 70 75 77 73 72 68 67 68 66 63 59 57 57 57 60 62 64 68 73 72 58 44 37 34 30
78 78 78 77 75 72 72 71 69 70 71 73 73 72 72 71 71 66 65 61 57 51 50 53 51 55 59 49 46 55 66 74 77 77 75 69 66 64 60 57 57 58 60 61 62 66 70 77 73 56 42 37 35 30

GFSWCAN_prec_cthk_255.txt.gz
RH
28 23 23 31 40 45 45 44 42 42 43 48 53 59 65 70 72 76 75 80 88 86 82 84 86 84 78 82 88 82 90 87 91 91 85 75 76 58 60 47 50 51 53 76 71 84 76 43 67 66 58 50 50 54
25 30 40 45 50 50 47 46 41 45 47 50 57 60 62 68 82 90 88 95 97 97 86 84 81 80 78 69 78 85 93 84 95 87 76 74 81 72 67 73 61 56 53 50 88 88 57 72 70 63 56 59 47 53
37 42 46 53 53 50 44 38 39 44 47 50 57 68 83 93 91 94 95 97 99 98 92 87 80 76 81 74 78 87 81 77 87 86 86 88 89 75 80 71 66 64 69 63 82 73 79 73 73 64 62 56 53 68
47 46 51 53 49 46 44 41 44 45 51 56 67 74 86 93 95 96 97 97 99 99 96 76 77 76 75 85 87 85 73 87 89 95 98 95 86 64 70 75 81 82 88 77 89 81 78 77 82 61 56 56 59 79
49 52 55 52 48 46 45 44 50 52 56 60 67 83 91 91 93 95 96 96 96 99 91 85 83 85 86 86 84 89 88 91 95 95 96 94 78 78 64 69 70 75 77 70 70 70 80 89 84 60 56 57 77 83
51 57 55 51 47 48 48 49 50 53 53 56 65 86 87 91 95 95 98 98 95 99 98 89 81 85 86 89 89 86 82 87 91 91 87 85 80 87 97 82 52 60 68 70 60 72 94 96 87 75 76 69 75 79
56 58 55 50 51 50 50 47 46 49 49 50 69 86 89 89 91 97 97 96 95 99 98 95 85 79 86 90 89 88 88 91 91 89 87 75 77 83 83 74 52 67 71 78 78 92 96 97 80 79 77 75 80 84
58 58 53 54 52 51 49 48 48 52 49 59 84 87 86 82 91 95 96 96 97 98 98 97 86 85 86 88 94 91 93 93 90 84 74 78 76 81 76 66 69 72 70 72 71 94 95 91 81 82 79 84 87 90
58 56 56 56 55 52 52 54 54 50 56 68 86 88 80 81 87 88 88 91 93 92 95 91 82 85 90 89 93 95 96 97 87 83 70 77 75 76 65 65 69 79 94 96 98 96 93 92 89 83 89 91 92 93
58 57 58 59 58 58 58 54 51 51 63 72 90 87 74 73 70 74 80 82 84 86 85 79 77 86 90 94 97 98 98 98 97 79 74 76 60 53 52 57 68 83 95 97 97 93 86 85 87 86 87 92 92 95
56 58 60 61 61 62 58 54 51 57 69 80 94 85 75 76 78 81 82 87 91 89 84 78 78 90 97 98 98 98 98 95 93 83 77 65 55 54 65 68 75 89 98 97 92 96 93 95 92 89 90 95 96 98
53 58 59 60 60 59 59 57 52 61 72 84 93 86 83 83 81 84 91 84 90 86 92 95 95 94 98 98 98 98 98 99 96 97 93 76 71 77 79 84 92 97 96 97 97 89 86 96 96 98 98 98 97 95
53 55 57 59 58 58 58 58 54 54 63 79 92 90 90 88 90 88 90 86 93 94 96 98 98 98 98 97 97 98 97 94 97 93 85 85 90 92 96 96 97 97 95 93 95 96 94 94 95 98 96 95 92 87
50 54 56 58 57 57 59 58 54 55 65 75 87 93 89 93 86 84 86 92 94 92 96 98 98 98 97 98 98 98 94 94 96 92 89 89 92 95 95 95 96 96 95 97 98 98 98 97 97 98 93 89 80 71
42 51 56 56 55 56 58 55 52 55 64 65 68 78 80 80 80 84 89 91 90 92 92 95 97 98 98 98 97 97 96 95 93 92 93 97 95 95 96 96 96 95 95 95 97 97 94 92 89 84 79 71 66 62
40 47 53 55 54 55 56 53 51 59 63 61 61 60 59 67 74 86 90 88 87 89 91 91 90 89 88 85 84 88 81 74 91 87 84 97 97 97 94 95 95 94 94 94 93 91 85 80 76 73 71 67 58 49
38 46 53 55 54 54 54 52 56 56 55 54 59 59 67 71 72 75 78 79 78 80 90 85 87 80 70 72 70 72 79 80 79 82 88 94 96 98 98 97 96 95 90 85 82 80 76 73 70 65 58 53 48 45
44 46 46 52 54 53 56 52 55 51 47 52 58 57 61 63 66 66 64 64 70 71 65 69 68 70 74 71 70 69 66 70 81 85 91 94 97 98 96 90 87 83 80 77 75 74 73 69 65 61 55 54 49 44
40 35 42 50 55 54 56 51 50 49 48 51 52 55 55 56 55 55 56 57 56 54 56 53 53 56 58 56 59 61 67 75 79 84 88 92 91 86 82 80 79 78 79 79 79 76 72 68 60 56 53 50 47 41
26 33 37 51 56 59 54 52 48 50 48 44 44 45 45 45 46 45 48 48 46 49 50 48 50 51 50 49 51 51 57 61 69 76 82 82 80 76 77 77 77 77 76 77 76 71 65 62 59 57 56 51 45 39
29 34 37 49 59 60 57 51 50 49 50 48 48 48 47 42 46 45 41 33 36 38 44 49 47 45 43 45 47 49 55 59 64 72 69 70 76 78 78 80 78 77 77 76 74 71 68 66 64 61 57 48 42 34
41 33 39 48 57 57 54 49 52 50 50 51 51 48 48 45 43 40 37 35 34 39 44 46 46 47 46 48 49 52 56 61 67 71 71 71 72 70 69 68 65 66 69 71 70 68 68 67 65 61 51 43 37 38
44 44 43 50 51 53 57 51 53 53 55 54 54 53 48 47 47 41 43 41 41 36 40 43 47 51 51 51 52 52 53 54 54 57 60 62 62 61 62 62 63 65 68 67 68 67 67 67 66 57 47 42 41 45
54 59 56 50 48 56 51 57 55 56 57 57 56 54 53 51 46 46 43 42 45 37 37 38 41 48 54 58 59 58 57 57 53 52 54 57 59 61 64 66 69 69 73 67 73 71 66 62 58 50 46 46 50 46
62 59 60 54 53 50 54 52 55 57 59 58 57 57 56 52 54 48 45 45 40 37 33 33 33 36 42 54 60 60 61 62 61 59 56 54 56 59 63 70 76 74 67 61 54 49 50 52 49 45 52 54 54 44
67 62 59 58 56 50 48 52 52 53 55 60 58 55 52 51 49 46 41 49 45 44 42 41 37 38 39 40 47 48 53 58 61 62 57 54 55 57 60 67 72 72 64 58 52 45 42 43 45 54 56 57 54 44
68 65 58 61 62 57 51 48 48 49 54 53 52 52 50 49 47 46 44 43 42 44 45 41 39 43 46 42 39 40 43 46 48 55 57 58 61 61 63 66 65 62 56 52 47 43 39 42 50 55 57 59 52 40
69 63 67 66 68 65 62 54 52 50 48 45 49 51 49 45 50 48 48 46 47 46 39 36 35 35 41 40 38 39 39 40 45 52 62 67 68 66 64 64 61 56 50 45 45 42 42 47 50 54 60 57 48 32
66 64 67 71 72 72 68 62 59 55 52 49 57 53 51 49 48 49 49 50 45 39 41 40 38 38 43 41 40 42 43 44 44 47 55 62 63 62 57 53 51 51 48 48 43 44 47 52 54 59 62 56 43 29
63 64 68 70 70 67 70 67 67 61 60 62 58 55 54 53 52 53 51 48 46 45 44 41 40 45 54 53 52 55 55 52 47 49 53 55 55 52 48 47 48 51 51 48 45 44 52 57 60 65 64 56 42 32
62 67 70 68 68 71 66 63 64 65 65 66 67 65 61 59 59 57 56 57 57 55 54 52 48 51 56 59 60 62 63 59 56 55 57 58 54 52 52 52 56 56 55 53 47 48 53 58 63 67 65 55 43 32
69 72 70 72 70 66 66 68 70 71 73 73 72 69 69 69 68 66 66 65 62 58 55 54 54 54 58 59 63 62 63 63 60 60 62 61 55 54 58 62 61 58 58 59 55 54 58 61 66 71 69 57 44 34
80 77 78 78 72 70 73 75 75 76 77 78 73 75 75 73 71 70 69 66 65 62 57 52 52 54 55 55 55 65 68 72 67 62 63 63 61 62 66 67 64 60 57 56 57 59 61 63 67 75 74 60 46 37

GFSWCAN_prec_cthk_258.txt.gz
RH
41 41 40 37 30 24 25 30 33 35 42 44 43 43 45 52 57 65 62 71 76 71 68 74 77 80 82 86 90 82 92 82 89 96 94 85 88 71 76 63 60 61 68 65 65 74 69 28 29 50 49 59 67 82
47 43 33 27 30 35 40 43 45 47 46 42 45 51 53 56 61 69 68 75 89 90 82 83 84 83 83 84 88 84 86 92 99 97 87 82 86 75 74 79 60 72 61 63 61 59 42 28 44 55 58 60 77 93
41 31 30 36 39 44 49 51 52 48 41 43 49 49 50 52 62 73 79 89 96 96 89 86 84 87 86 81 80 90 85 73 73 75 86 95 97 92 96 77 68 63 59 63 64 42 40 41 36 44 54 71 84 89
33 36 39 45 47 48 52 52 51 45 44 46 48 52 57 64 73 84 93 98 99 97 93 76 82 80 81 86 78 79 66 79 83 86 95 95 87 83 85 73 74 60 59 52 58 60 54 45 37 46 50 60 87 91
44 45 48 48 48 52 55 54 50 51 51 53 55 57 60 66 78 92 93 95 98 99 96 88 84 79 81 81 81 84 83 82 84 90 93 89 82 87 86 85 76 43 54 59 53 44 57 41 37 43 52 57 71 93
47 49 50 52 55 57 56 54 53 53 51 56 55 53 55 65 84 94 91 87 92 98 99 91 78 80 80 81 83 83 82 84 91 94 92 90 76 93 98 86 55 53 62 74 68 56 56 48 47 52 60 66 74 80
49 50 54 57 59 58 56 56 55 51 46 48 48 47 56 73 93 96 89 89 93 98 98 96 82 67 72 80 81 85 90 90 94 91 84 88 74 93 97 85 44 52 60 62 57 53 53 59 68 74 86 84 97 98
47 52 55 59 61 59 58 56 51 47 49 49 49 59 70 86 81 75 85 95 97 95 94 92 82 77 77 79 84 85 87 94 91 89 78 83 86 90 83 56 51 52 62 61 58 66 69 75 80 88 88 98 98 79
46 50 56 61 62 61 59 55 54 54 49 54 61 69 80 75 69 70 73 79 81 84 84 81 74 75 86 87 91 93 95 96 91 89 90 95 80 73 50 52 58 61 65 72 74 82 93 91 86 90 98 97 97 87
42 50 60 61 64 62 59 58 55 49 52 62 67 77 78 71 67 66 71 73 75 79 78 71 67 76 85 91 92 96 99 96 91 86 91 91 79 64 62 58 60 64 67 72 84 79 93 92 96 98 98 99 93 90
35 55 62 64 66 65 64 60 54 55 66 69 76 82 79 69 71 78 75 77 81 83 84 82 79 82 94 98 97 97 95 94 92 82 92 86 76 77 78 80 79 84 90 89 96 98 98 99 97 98 98 98 98 99
41 58 62 65 67 66 65 61 55 65 75 77 82 88 82 75 77 77 82 84 83 80 88 93 94 97 96 96 98 98 98 97 94 96 98 92 92 92 89 90 89 91 95 98 98 98 98 99 98 99 99 98 95 96
39 52 59 64 66 64 64 63 58 55 63 75 81 86 85 82 82 82 81 76 80 82 92 94 97 99 98 98 98 98 98 93 95 94 90 96 98 97 98 98 98 97 96 94 97 99 98 97 95 98 98 98 98 97
41 48 56 61 64 62 62 64 62 55 64 79 78 82 86 87 81 79 88 91 91 91 92 93 94 95 98 98 97 98 95 95 96 95 96 97 94 95 95 98 98 98 98 97 98 98 98 94 92 94 93 90 95 92
43 47 55 58 61 63 63 67 62 56 68 75 77 78 78 78 83 82 77 77 82 87 87 90 94 94 95 95 97 95 97 95 94 98 97 89 95 97 93 96 96 95 95 97 97 97 97 97 97 97 97 91 84 77
45 46 52 59 61 62 65 67 61 60 70 71 68 61 58 58 60 61 73 80 84 85 90 91 92 92 89 85 85 86 84 86 93 91 84 88 93 94 93 93 92 93 93 93 92 92 92 92 90 83 78 76 70 66
47 50 60 61 59 61 65 66 67 71 70 65 57 55 56 64 67 69 73 76 74 76 83 82 85 85 78 71 70 74 78 73 73 79 89 96 97 98 97 96 97 97 97 94 94 94 89 85 76 69 65 60 54 48
55 62 57 60 62 62 67 64 71 67 57 51 54 55 57 67 69 71 76 70 66 75 74 74 70 71 72 71 83 78 64 65 75 82 88 90 93 93 95 94 93 92 90 88 85 77 71 70 70 67 60 53 51 48
52 53 55 56 61 66 72 66 64 63 51 52 52 55 55 59 62 64 58 57 57 56 53 54 54 59 70 66 56 56 61 67 77 85 88 92 94 90 87 86 85 82 82 81 79 76 75 73 67 60 56 53 50 45
36 42 44 53 62 69 70 67 63 59 58 50 50 53 52 51 52 53 53 52 49 51 52 50 52 54 51 48 49 51 54 59 62 69 77 81 79 77 76 77 77 77 77 76 77 77 76 71 67 64 60 58 52 43
31 45 47 57 67 71 72 64 59 58 59 56 52 53 51 46 46 44 44 44 40 44 46 45 48 44 41 43 47 48 51 55 60 65 65 63 64 71 77 78 76 75 76 75 75 73 68 65 63 61 59 55 46 41
43 48 58 62 75 74 68 64 64 61 57 57 55 54 55 51 49 46 43 38 36 40 40 41 40 41 41 42 44 48 52 59 65 72 71 69 67 64 63 62 61 63 65 69 71 72 71 68 66 65 63 53 46 39
40 46 59 65 69 69 68 61 62 60 59 61 57 60 58 54 52 47 41 39 41 39 39 41 42 45 44 44 47 51 55 58 60 61 62 64 64 61 58 56 56 57 61 65 65 65 64 67 71 71 66 53 42 37
42 51 61 66 65 68 60 62 59 57 61 60 59 61 56 55 53 47 42 40 43 40 38 40 45 47 49 49 50 52 54 53 49 49 54 55 56 56 57 58 59 63 65 67 68 67 72 72 69 67 61 49 38 42
61 55 62 62 65 64 62 60 57 59 63 61 63 62 62 57 56 49 44 46 48 46 41 36 39 45 51 55 57 57 56 56 54 52 51 54 54 53 53 56 60 69 70 71 65 62 59 65 65 61 55 46 41 52
70 68 61 64 67 63 60 59 61 60 57 64 66 63 60 60 57 52 44 51 53 47 43 38 37 38 38 46 59 57 57 57 57 58 59 59 56 53 53 54 59 68 72 66 65 61 56 47 49 50 46 52 55 52
72 70 61 66 69 65 65 61 53 55 61 61 64 62 62 61 54 50 49 48 45 42 40 40 39 41 43 46 47 50 46 47 48 51 54 58 58 55 55 57 60 66 64 60 58 56 54 45 44 44 54 56 57 51
71 70 69 64 68 68 69 69 66 62 58 54 56 56 54 49 51 50 47 43 41 43 41 37 35 35 37 43 45 47 42 41 42 40 44 50 59 62 64 63 62 63 60 56 51 46 46 40 40 49 54 57 57 49
73 68 70 73 70 71 73 70 67 60 56 51 57 57 55 49 48 46 44 44 45 44 42 39 39 38 35 32 41 46 43 42 43 43 45 47 54 62 64 63 61 58 52 49 47 48 43 40 44 49 53 59 57 45
68 69 72 73 73 73 74 71 72 66 62 60 60 59 55 50 48 47 48 48 46 45 42 40 38 37 40 44 45 47 47 46 46 45 47 49 51 60 62 61 57 52 50 49 49 48 45 46 51 54 59 62 59 46
69 71 74 73 72 77 78 71 68 69 65 66 66 63 59 57 55 54 53 50 49 48 48 46 44 43 47 49 52 53 54 55 56 53 51 53 56 55 55 56 52 49 49 50 51 50 45 46 53 57 62 65 62 50
77 76 72 76 82 77 75 76 72 73 74 73 71 68 69 67 64 61 59 58 58 56 55 52 51 51 52 54 57 60 61 61 61 59 57 54 55 54 49 48 47 49 56 57 55 54 48 47 53 58 65 69 66 55
83 82 82 89 85 78 77 78 76 75 73 77 75 75 75 74 71 68 67 65 65 63 58 54 51 50 51 52 54 59 63 62 61 60 60 58 57 56 54 54 56 61 62 59 56 56 53 52 55 60 66 72 70 60